Location: Gołdap
(54.3084°N, 22.3049°E)
Time: 22:42:12
(UTC+01:00)

ISS - Visible Passes

Search period start: 23 January 2019 00:00
Search period end: 02 February 2019 00:00
Orbit: 404 x 410 km, 51.6° (Epoch: 24 January)

Date Brightness Start Highest point End Pass type
(mag) Time Alt. Az. Time Alt. Az. Time Alt. Az.
24 Jan -1.5 17:50:43 10° S 17:52:03 13° SSE 17:52:03 13° SSE visible
25 Jan -1.7 18:34:11 10° SW 18:35:41 21° SSW 18:35:41 21° SSW visible
26 Jan -2.2 17:43:15 10° SSW 17:45:54 22° SSE 17:46:30 21° SE visible
26 Jan -0.6 19:18:48 10° WSW 19:19:14 13° WSW 19:19:14 13° WSW visible
27 Jan -1.6 16:52:36 10° S 16:54:43 16° SE 16:56:50 10° ESE visible
27 Jan -2.6 18:27:33 10° WSW 18:30:00 36° SSW 18:30:00 36° SSW visible
28 Jan -2.7 17:36:23 10° SW 17:39:23 33° SSE 17:40:43 24° ESE visible
28 Jan -1.1 19:12:23 10° WSW 19:13:26 18° WSW 19:13:26 18° WSW visible
29 Jan -2.2 16:45:20 10° SSW 16:48:07 25° SSE 16:50:55 10° E visible
29 Jan -3.3 18:21:02 10° WSW 18:24:07 51° S 18:24:07 51° S visible
30 Jan -3.1 17:29:44 10° WSW 17:32:55 45° SSE 17:34:47 21° ESE visible
30 Jan -1.5 19:05:59 10° W 19:07:30 24° WSW 19:07:30 24° WSW visible
31 Jan -3.5 18:14:36 10° W 18:17:50 54° S 18:18:09 51° SSE visible
01 Feb -3.3 17:23:12 10° WSW 17:26:26 53° S 17:28:49 17° ESE visible
01 Feb -1.8 18:59:36 10° W 19:01:32 28° WSW 19:01:32 28° WSW visible
